Weather History for KCMD - April, 2014

Change the Weather History Date:

Wednesday, April 23, 2014

  Actual Average Record
Temperature  
Mean Temperature 60 °F -  
Max Temperature 72 °F - - ()
Min Temperature 47 °F - - ()
Degree Days  
Heating Degree Days 6    
Growing Degree Days 10 (Base 50)    
Moisture  
Dew Point 43 °F    
Average Humidity 58    
Maximum Humidity 92    
Minimum Humidity 27    
Precipitation  
Precipitation 0.00 in - - ()
Sea Level Pressure  
Sea Level Pressure 30.00 in    
Wind  
Wind Speed 4 mph (North)    
Max Wind Speed 13 mph    
Max Gust Speed 18 mph    
Visibility 10 miles    
Events      
T = Trace of Precipitation, MM = Missing Value Source: NWS Daily Summary

Daily Weather History Graph

Daily Weather History Graph

Search for Another Location

Airport or City:

Trip Planner

Search our weather history database for the weather conditions in past years. The results will help you decide how hot, cold, wet, or windy it might be!

Date:

Astronomy

Apr. 23, 2014 Rise Set
Actual Time 6:06 AM CDT 7:25 PM CDT
Civil Twilight 5:40 AM CDT 7:51 PM CDT
Nautical Twilight 5:09 AM CDT 8:23 PM CDT
Astronomical Twilight 4:36 AM CDT 8:55 PM CDT
Moon 2:21 AM CDT (4/23) 1:48 PM CDT (4/23)
Length of Visible Light 14h 11m
Length of Day
13h 18m
Waning Crescent, 34% of the Moon is Illuminated
Apr 23
Waning Crescent
Apr 29
New
May 6
First Quarter
May 14
Full
May 21
Last Quarter

Hourly Weather History & Observations

Time (CDT) Temp. Dew Point Humidity Pressure Visibility Wind Dir Wind Speed Gust Speed Precip Events Conditions
12:15 AM 60.6 °F 57.4 °F 89% 29.94 in 10.0 mi North 3.5 mph - N/A   Clear
12:35 AM 60.3 °F 55.4 °F 84% 29.94 in 10.0 mi North 4.6 mph - N/A   Clear
12:55 AM 59.7 °F 52.3 °F 77% 29.94 in 10.0 mi NNE 4.6 mph - N/A   Clear
1:15 AM 57.7 °F 51.1 °F 78% 29.94 in 10.0 mi North 3.5 mph - N/A   Clear
1:35 AM 55.8 °F 50.4 °F 82% 29.95 in 10.0 mi North 3.5 mph - N/A   Clear
1:55 AM 55.4 °F 49.6 °F 81% 29.95 in 10.0 mi Calm Calm - N/A   Clear
2:15 AM 53.6 °F 49.8 °F 87% 29.95 in 10.0 mi Calm Calm - N/A   Clear
2:35 AM 52.7 °F 48.4 °F 85% 29.95 in 10.0 mi North 5.8 mph - N/A   Clear
2:55 AM 55.6 °F 45.7 °F 69% 29.95 in 10.0 mi North 5.8 mph - N/A   Clear
3:15 AM 54.5 °F 44.8 °F 70% 29.95 in 10.0 mi North 4.6 mph - N/A   Clear
3:35 AM 52.5 °F 45.3 °F 76% 29.95 in 10.0 mi North 3.5 mph - N/A   Clear
3:55 AM 52.3 °F 45.5 °F 78% 29.96 in 10.0 mi North 3.5 mph - N/A   Clear
4:15 AM 52.2 °F 45.5 °F 78% 29.96 in 10.0 mi North 3.5 mph - N/A   Clear
4:55 AM 50.9 °F 44.4 °F 78% 29.97 in 10.0 mi North 3.5 mph - N/A   Clear
5:15 AM 48.9 °F 44.6 °F 85% 29.98 in 10.0 mi Calm Calm - N/A   Clear
5:35 AM 47.1 °F 44.8 °F 92% 29.98 in 10.0 mi NNW 3.5 mph - N/A   Clear
5:55 AM 48.6 °F 43.9 °F 84% 29.99 in 10.0 mi NNW 4.6 mph - N/A   Clear
6:15 AM 48.9 °F 43.7 °F 82% 29.99 in 10.0 mi North 5.8 mph - N/A   Clear
6:35 AM 49.1 °F 43.7 °F 82% 30.00 in 10.0 mi North 3.5 mph - N/A   Clear
6:55 AM 49.6 °F 44.2 °F 82% 30.01 in 10.0 mi North 4.6 mph - N/A   Clear
7:15 AM 51.3 °F 44.4 °F 77% 30.02 in 10.0 mi NNW 3.5 mph - N/A   Clear
7:35 AM 52.9 °F 44.2 °F 72% 30.03 in 10.0 mi NNW 4.6 mph - N/A   Clear
7:55 AM 54.1 °F 44.6 °F 70% 30.04 in 10.0 mi North 6.9 mph - N/A   Clear
8:15 AM 55.6 °F 44.1 °F 65% 30.04 in 10.0 mi North 5.8 mph - N/A   Clear
8:35 AM 56.8 °F 43.3 °F 61% 30.04 in 10.0 mi North 8.1 mph - N/A   Clear
8:55 AM 58.3 °F 43.5 °F 58% 30.04 in 10.0 mi North 8.1 mph - N/A   Clear
9:15 AM 59.5 °F 43.2 °F 55% 30.05 in 10.0 mi NE 9.2 mph - N/A   Clear
9:35 AM 60.6 °F 41.7 °F 50% 30.06 in 10.0 mi NNE 10.4 mph - N/A   Clear
9:55 AM 61.3 °F 41.2 °F 48% 30.06 in 10.0 mi NNE 12.7 mph 17.3 mph N/A   Clear
10:15 AM 62.4 °F 41.4 °F 46% 30.06 in 10.0 mi NE 10.4 mph - N/A   Clear
10:35 AM 63.3 °F 42.4 °F 46% 30.06 in 10.0 mi North 9.2 mph - N/A   Clear
10:55 AM 64.0 °F 42.1 °F 45% 30.06 in 10.0 mi North 6.9 mph - N/A   Clear
11:15 AM 64.4 °F 41.2 °F 43% 30.06 in 10.0 mi NE 6.9 mph - N/A   Clear
11:35 AM 65.1 °F 39.6 °F 39% 30.05 in 10.0 mi North 10.4 mph - N/A   Clear
11:55 AM 65.8 °F 39.2 °F 38% 30.04 in 10.0 mi North 8.1 mph - N/A   Clear
12:15 PM 66.7 °F 39.6 °F 37% 30.04 in 10.0 mi NE 5.8 mph - N/A   Clear
12:35 PM 67.6 °F 37.9 °F 34% 30.03 in 10.0 mi NE 4.6 mph - N/A   Clear
12:55 PM 68.2 °F 37.6 °F 33% 30.02 in 10.0 mi NE 6.9 mph 18.4 mph N/A   Clear
1:15 PM 68.7 °F 36.1 °F 30% 30.02 in 10.0 mi NNE 9.2 mph - N/A   Clear
1:35 PM 69.3 °F 35.1 °F 28% 30.00 in 10.0 mi North 10.4 mph - N/A   Clear
1:55 PM 70.0 °F 35.4 °F 28% 30.00 in 10.0 mi North 8.1 mph - N/A   Clear
2:15 PM 70.7 °F 37.8 °F 30% 30.00 in 10.0 mi Calm Calm - N/A   Clear
2:35 PM 70.9 °F 37.6 °F 30% 30.00 in 10.0 mi NNE 6.9 mph - N/A   Clear
2:55 PM 71.6 °F 36.7 °F 28% 29.99 in 10.0 mi NW 6.9 mph - N/A   Clear
3:15 PM 72.0 °F 36.0 °F 27% 29.99 in 10.0 mi NE 3.5 mph - N/A   Clear
3:35 PM 71.8 °F 37.6 °F 29% 29.98 in 10.0 mi Calm Calm - N/A   Clear
3:55 PM 72.1 °F 38.1 °F 29% 29.98 in 10.0 mi NNE 4.6 mph - N/A   Clear
4:15 PM 72.0 °F 39.4 °F 31% 29.98 in 10.0 mi NW 6.9 mph - N/A   Clear
4:35 PM 72.0 °F 39.9 °F 31% 29.98 in 10.0 mi North 6.9 mph - N/A   Clear
4:55 PM 72.0 °F 39.9 °F 31% 29.97 in 10.0 mi NNE 6.9 mph - N/A   Clear
5:15 PM 71.4 °F 38.5 °F 30% 29.97 in 10.0 mi North 3.5 mph - N/A   Clear
5:35 PM 71.1 °F 38.3 °F 30% 29.97 in 10.0 mi North 5.8 mph - N/A   Clear
5:55 PM 70.7 °F 38.5 °F 31% 29.98 in 10.0 mi NNW 4.6 mph - N/A   Clear
6:15 PM 69.8 °F 38.5 °F 32% 29.97 in 10.0 mi North 3.5 mph - N/A   Clear
6:35 PM 68.9 °F 38.8 °F 33% 29.97 in 10.0 mi Calm Calm - N/A   Clear
6:55 PM 67.3 °F 39.7 °F 36% 29.97 in 10.0 mi North 3.5 mph - N/A   Clear
7:15 PM 65.5 °F 40.3 °F 40% 29.97 in 10.0 mi Calm Calm - N/A   Clear
7:35 PM 62.2 °F 41.5 °F 47% 29.98 in 10.0 mi Calm Calm - N/A   Clear
7:55 PM 59.2 °F 43.3 °F 56% 29.99 in 10.0 mi Calm Calm - N/A   Clear
8:15 PM 56.5 °F 43.7 °F 62% 29.99 in 10.0 mi Calm Calm - N/A   Clear
8:35 PM 54.9 °F 43.9 °F 66% 30.00 in 10.0 mi Calm Calm - N/A   Clear
8:55 PM 53.2 °F 43.9 °F 71% 30.00 in 10.0 mi Calm Calm - N/A   Clear
9:15 PM 52.7 °F 44.4 °F 73% 30.00 in 10.0 mi Calm Calm - N/A   Clear
9:55 PM 50.7 °F 45.3 °F 82% 30.01 in 10.0 mi Calm Calm - N/A   Clear
10:15 PM 50.2 °F 44.2 °F 80% 30.00 in 10.0 mi Calm Calm - N/A   Clear
10:35 PM 50.0 °F 43.9 °F 79% 30.00 in 10.0 mi Calm Calm - N/A   Clear
10:55 PM 49.8 °F 44.1 °F 81% 29.99 in 10.0 mi Calm Calm - N/A   Clear
11:15 PM 49.6 °F 43.7 °F 80% 29.99 in 10.0 mi Calm Calm - N/A   Clear
11:35 PM 48.2 °F 43.0 °F 82% 29.99 in 10.0 mi Calm Calm - N/A   Clear
11:55 PM 47.5 °F 42.3 °F 82% 29.99 in 10.0 mi Calm Calm - N/A   Clear